| time (UTC) | temp F | wind direction | speed MPH | gust MPH | rain 1hr in | rain 24hr in | rain mn in | humidity % | barometer mb |
| 20260503182746 | 43 | 225 | 0.0 | 0.0 | 0.00 | 0.00 | 0.00 | 58 | 1111.0 |
| 20260503181745 | 45 | 225 | 0.0 | 0.0 | 0.00 | 0.00 | 0.00 | 57 | 1111.0 |
| 20260503180745 | 46 | 225 | 0.0 | 0.0 | 0.00 | 0.00 | 0.00 | 55 | 1111.0 |
| 20260503175744 | 48 | 225 | 0.0 | 0.0 | 0.00 | 0.00 | 0.00 | 54 | 1111.0 |
| 20260503174743 | 48 | 225 | 0.0 | 0.0 | 0.00 | 0.00 | 0.00 | 53 | 1111.0 |
| 20260503173743 | 50 | 225 | 1.0 | 1.0 | 0.00 | 0.00 | 0.00 | 53 | 1111.0 |
| 20260503172742 | 51 | 247 | 0.0 | 0.0 | 0.00 | 0.00 | 0.00 | 52 | 1111.0 |
| 20260503171742 | 52 | 247 | 0.0 | 0.0 | 0.00 | 0.00 | 0.00 | 50 | 1111.0 |
| 20260503170741 | 54 | 247 | 0.0 | 0.0 | 0.00 | 0.00 | 0.00 | 49 | 1111.0 |
| 20260503150734 | 60 | 0 | 2.0 | 2.0 | 0.00 | 0.00 | 0.00 | 44 | 1111.0 |
| 20260503131131 | 65 | 337 | 0.0 | 2.0 | 0.00 | 0.00 | 0.00 | 37 | 1111.0 |
| 20260503130727 | 66 | 135 | 2.0 | 2.0 | 0.00 | 0.00 | 0.00 | 37 | 1111.0 |
| 20260503110721 | 61 | 112 | 4.0 | 6.0 | 0.00 | 0.00 | 0.00 | 38 | 1111.0 |
| 20260503100119 | 60 | 337 | 2.0 | 5.0 | 0.00 | 0.00 | 0.00 | 37 | 1111.0 |
| 20260503090415 | 58 | 270 | 2.0 | 2.0 | 0.00 | 0.00 | 0.00 | 43 | 1111.0 |
| 20260503080710 | 55 | 22 | 0.0 | 2.0 | 0.00 | 0.00 | 0.00 | 49 | 1111.0 |
| 20260503072708 | 52 | 225 | 2.0 | 3.0 | 0.00 | 0.00 | 0.00 | 53 | 1111.0 |
| 20260503071708 | 50 | 292 | 1.0 | 4.0 | 0.00 | 0.00 | 0.00 | 56 | 1111.0 |
| 20260503070707 | 50 | 90 | 0.0 | 0.0 | 0.00 | 0.00 | 0.00 | 57 | 1111.0 |
| 20260503054702 | 42 | 157 | 0.0 | 0.0 | 0.00 | 0.00 | 0.00 | 72 | 1111.0 |
| 20260503053702 | 41 | 157 | 0.0 | 0.0 | 0.00 | 0.00 | 0.00 | 73 | 1111.0 |
| 20260503053503 | 40 | 157 | 0.0 | 0.0 | 0.00 | 0.00 | 0.00 | 74 | 1111.0 |
| 20260503052701 | 39 | 157 | 0.0 | 0.0 | 0.00 | 0.00 | 0.00 | 75 | 1111.0 |
| 20260503051701 | 38 | 157 | 0.0 | 0.0 | 0.00 | 0.00 | 0.00 | 77 | 1111.0 |
| 20260503051602 | 38 | 157 | 0.0 | 0.0 | 0.00 | 0.00 | 0.00 | 77 | 1111.0 |
| 20260503050700 | 37 | 135 | 0.0 | 1.0 | 0.00 | 0.00 | 0.00 | 78 | 1111.0 |
| 20260503045700 | 36 | 112 | 0.0 | 0.0 | 0.00 | 0.00 | 0.00 | 79 | 1111.0 |
| 20260503044659 | 33 | 112 | 0.0 | 0.0 | 0.00 | 0.00 | 0.00 | 80 | 1111.0 |
| 20260503043658 | 33 | 112 | 0.0 | 0.0 | 0.00 | 0.00 | 0.00 | 81 | 1111.0 |
| 20260503042658 | 31 | 112 | 0.0 | 0.0 | 0.00 | 0.00 | 0.00 | 83 | 1111.0 |
| 20260503041859 | 31 | 112 | 0.0 | 0.0 | 0.00 | 0.00 | 0.00 | 83 | 1111.0 |
| 20260503041657 | 31 | 112 | 0.0 | 0.0 | 0.00 | 0.00 | 0.00 | 83 | 1111.0 |
| 20260503040657 | 28 | 112 | 0.0 | 0.0 | 0.00 | 0.00 | 0.00 | 84 | 1111.0 |
| 20260503035656 | 25 | 112 | 0.0 | 0.0 | 0.00 | 0.00 | 0.00 | 83 | 1111.0 |
| 20260503034656 | 23 | 112 | 0.0 | 0.0 | 0.00 | 0.00 | 0.00 | 80 | 1111.0 |
| 20260503034057 | 23 | 112 | 0.0 | 0.0 | 0.00 | 0.00 | 0.00 | 80 | 1111.0 |
| 20260503033655 | 23 | 112 | 0.0 | 0.0 | 0.00 | 0.00 | 0.00 | 80 | 1111.0 |
| 20260503032654 | 23 | 112 | 0.0 | 0.0 | 0.00 | 0.00 | 0.00 | 79 | 1111.0 |
| 20260503031654 | 23 | 112 | 0.0 | 0.0 | 0.00 | 0.00 | 0.00 | 79 | 1111.0 |
| 20260503030653 | 23 | 112 | 0.0 | 0.0 | 0.00 | 0.00 | 0.00 | 79 | 1111.0 |
| 20260503030256 | 23 | 112 | 0.0 | 0.0 | 0.00 | 0.00 | 0.00 | 79 | 1111.0 |
| 20260503025653 | 23 | 112 | 0.0 | 0.0 | 0.00 | 0.00 | 0.00 | 79 | 1111.0 |
| 20260503024652 | 24 | 112 | 0.0 | 0.0 | 0.00 | 0.00 | 0.00 | 79 | 1111.0 |
| 20260503024353 | 24 | 112 | 0.0 | 0.0 | 0.00 | 0.00 | 0.00 | 79 | 1111.0 |
| 20260503023652 | 24 | 112 | 0.0 | 0.0 | 0.00 | 0.00 | 0.00 | 79 | 1111.0 |
| 20260503022651 | 24 | 112 | 0.0 | 0.0 | 0.00 | 0.00 | 0.00 | 78 | 1111.0 |
| 20260503021651 | 24 | 112 | 0.0 | 0.0 | 0.00 | 0.00 | 0.00 | 78 | 1111.0 |
| 20260503020650 | 25 | 112 | 0.0 | 0.0 | 0.00 | 0.00 | 0.00 | 78 | 1111.0 |
| 20260503020551 | 25 | 112 | 0.0 | 0.0 | 0.00 | 0.00 | 0.00 | 78 | 1111.0 |
| 20260503015649 | 25 | 112 | 0.0 | 0.0 | 0.00 | 0.00 | 0.00 | 78 | 1111.0 |
| 20260503014649 | 25 | 112 | 0.0 | 0.0 | 0.00 | 0.00 | 0.00 | 78 | 1111.0 |
| 20260503013648 | 25 | 112 | 0.0 | 0.0 | 0.00 | 0.00 | 0.00 | 78 | 1111.0 |
| 20260503012648 | 26 | 112 | 0.0 | 0.0 | 0.00 | 0.00 | 0.00 | 77 | 1111.0 |
| 20260503011647 | 26 | 112 | 0.0 | 0.0 | 0.00 | 0.00 | 0.00 | 77 | 1111.0 |
| 20260503010646 | 26 | 112 | 0.0 | 0.0 | 0.00 | 0.00 | 0.00 | 77 | 1111.0 |
| 20260503005646 | 27 | 112 | 0.0 | 0.0 | 0.00 | 0.00 | 0.00 | 77 | 1111.0 |
| 20260503004645 | 27 | 112 | 0.0 | 0.0 | 0.00 | 0.00 | 0.00 | 76 | 1111.0 |
| 20260503003645 | 27 | 112 | 0.0 | 0.0 | 0.00 | 0.00 | 0.00 | 76 | 1111.0 |
| 20260503002644 | 27 | 112 | 0.0 | 0.0 | 0.00 | 0.00 | 0.00 | 76 | 1111.0 |
| 20260503001644 | 28 | 112 | 0.0 | 0.0 | 0.00 | 0.00 | 0.00 | 75 | 1111.0 |
| 20260503001145 | 28 | 112 | 0.0 | 0.0 | 0.00 | 0.00 | 0.00 | 75 | 1111.0 |
| 20260503000643 | 29 | 112 | 0.0 | 0.0 | 0.00 | 0.00 | 0.00 | 75 | 1111.0 |
| 20260502235644 | 29 | 112 | 0.0 | 0.0 | 0.00 | 0.00 | 0.00 | 75 | 1111.0 |
| 20260502235245 | 29 | 112 | 0.0 | 0.0 | 0.00 | 0.00 | 0.00 | 75 | 1111.0 |
| 20260502234642 | 30 | 112 | 0.0 | 0.0 | 0.00 | 0.00 | 0.00 | 74 | 1111.0 |
| 20260502233641 | 30 | 112 | 0.0 | 0.0 | 0.00 | 0.00 | 0.00 | 75 | 1111.0 |
| 20260502232641 | 31 | 112 | 0.0 | 0.0 | 0.00 | 0.00 | 0.00 | 74 | 1111.0 |
| 20260502231640 | 32 | 112 | 0.0 | 0.0 | 0.00 | 0.00 | 0.00 | 74 | 1111.0 |
| 20260502231444 | 32 | 112 | 0.0 | 0.0 | 0.00 | 0.00 | 0.00 | 74 | 1111.0 |
| 20260502230640 | 32 | 112 | 0.0 | 0.0 | 0.00 | 0.00 | 0.00 | 74 | 1111.0 |
| 20260502225639 | 33 | 112 | 0.0 | 0.0 | 0.00 | 0.00 | 0.00 | 74 | 1111.0 |
| 20260502225540 | 33 | 112 | 0.0 | 0.0 | 0.00 | 0.00 | 0.00 | 74 | 1111.0 |
| 20260502224638 | 33 | 112 | 0.0 | 0.0 | 0.00 | 0.00 | 0.00 | 74 | 1111.0 |
| 20260502223638 | 33 | 112 | 0.0 | 0.0 | 0.00 | 0.00 | 0.00 | 73 | 1111.0 |
| 20260502222637 | 33 | 112 | 0.0 | 0.0 | 0.00 | 0.00 | 0.00 | 73 | 1111.0 |
| 20260502221738 | 33 | 112 | 0.0 | 0.0 | 0.00 | 0.00 | 0.00 | 72 | 1111.0 |
| 20260502221637 | 33 | 112 | 0.0 | 0.0 | 0.00 | 0.00 | 0.00 | 72 | 1111.0 |
| 20260502220636 | 34 | 112 | 0.0 | 0.0 | 0.00 | 0.00 | 0.00 | 72 | 1111.0 |
| 20260502215837 | 34 | 112 | 0.0 | 0.0 | 0.00 | 0.00 | 0.00 | 71 | 1111.0 |
| 20260502215636 | 34 | 112 | 0.0 | 0.0 | 0.00 | 0.00 | 0.00 | 71 | 1111.0 |
| 20260502214635 | 35 | 112 | 0.0 | 0.0 | 0.00 | 0.00 | 0.00 | 71 | 1111.0 |
| 20260502213635 | 35 | 112 | 0.0 | 1.0 | 0.00 | 0.00 | 0.00 | 71 | 1111.0 |
| 20260502212634 | 35 | 112 | 0.0 | 0.0 | 0.00 | 0.00 | 0.00 | 70 | 1111.0 |
| 20260502212035 | 36 | 112 | 0.0 | 0.0 | 0.00 | 0.00 | 0.00 | 70 | 1111.0 |
| 20260502211633 | 36 | 112 | 0.0 | 0.0 | 0.00 | 0.00 | 0.00 | 70 | 1111.0 |
| 20260502210633 | 36 | 112 | 0.0 | 0.0 | 0.00 | 0.00 | 0.00 | 70 | 1111.0 |
| 20260502210134 | 37 | 112 | 0.0 | 0.0 | 0.00 | 0.00 | 0.00 | 69 | 1111.0 |
| 20260502205633 | 37 | 112 | 0.0 | 0.0 | 0.00 | 0.00 | 0.00 | 69 | 1111.0 |
| 20260502204632 | 37 | 112 | 0.0 | 0.0 | 0.00 | 0.00 | 0.00 | 68 | 1111.0 |
| 20260502204233 | 37 | 112 | 0.0 | 1.0 | 0.00 | 0.00 | 0.00 | 68 | 1111.0 |
| 20260502203631 | 37 | 112 | 0.0 | 0.0 | 0.00 | 0.00 | 0.00 | 68 | 1111.0 |
| 20260502202631 | 37 | 112 | 0.0 | 0.0 | 0.00 | 0.00 | 0.00 | 68 | 1111.0 |
| 20260502202332 | 37 | 112 | 0.0 | 0.0 | 0.00 | 0.00 | 0.00 | 68 | 1111.0 |
| 20260502201630 | 37 | 112 | 0.0 | 0.0 | 0.00 | 0.00 | 0.00 | 67 | 1111.0 |
| 20260502200629 | 38 | 112 | 0.0 | 0.0 | 0.00 | 0.00 | 0.00 | 66 | 1111.0 |
| 20260502200431 | 38 | 112 | 0.0 | 0.0 | 0.00 | 0.00 | 0.00 | 66 | 1111.0 |
| 20260502195629 | 38 | 112 | 0.0 | 0.0 | 0.00 | 0.00 | 0.00 | 66 | 1111.0 |
| 20260502194628 | 39 | 112 | 0.0 | 0.0 | 0.00 | 0.00 | 0.00 | 65 | 1111.0 |
| 20260502194529 | 39 | 112 | 0.0 | 0.0 | 0.00 | 0.00 | 0.00 | 65 | 1111.0 |
| 20260502193628 | 39 | 112 | 0.0 | 0.0 | 0.00 | 0.00 | 0.00 | 64 | 1111.0 |
| 20260502192627 | 40 | 112 | 0.0 | 0.0 | 0.00 | 0.00 | 0.00 | 64 | 1111.0 |
| 20260502191627 | 40 | 112 | 0.0 | 0.0 | 0.00 | 0.00 | 0.00 | 63 | 1111.0 |
| 20260502190626 | 41 | 112 | 0.0 | 0.0 | 0.00 | 0.00 | 0.00 | 63 | 1111.0 |
| 20260502185625 | 41 | 112 | 0.0 | 0.0 | 0.00 | 0.00 | 0.00 | 62 | 1111.0 |
| 20260502184826 | 41 | 112 | 0.0 | 0.0 | 0.00 | 0.00 | 0.00 | 62 | 1111.0 |
| 20260502184625 | 41 | 112 | 0.0 | 0.0 | 0.00 | 0.00 | 0.00 | 62 | 1111.0 |
| 20260502183624 | 42 | 112 | 0.0 | 1.0 | 0.00 | 0.00 | 0.00 | 61 | 1111.0 |